<?xml version='1.0' encoding='UTF-8'?>
<gpx xmlns="http://www.topografix.com/GPX/1/1" creator="www.balnam.be" version="1.1" xmlns:xsi="http://www.w3.org/2001/XMLSchema-instance" xsi:schemaLocation="http://www.topografix.com/GPX/1/1 http://www.topografix.com/GPX/1/1/gpx.xsd">
<trk>
<name>hmlma10</name>
<cmt>r</cmt>
<desc>Mont-Sainte-Aldegonde Chemin n°10 </desc>
<link href="https://chemins.be/montsaintealdegonde/chemin/10"/><trkseg>
<trkpt lat="50.422048" lon="4.232977"><time>2026-05-02T18:45:16Z</time></trkpt>
<trkpt lat="50.421943" lon="4.235510"><time>2026-05-02T18:55:16Z</time></trkpt>
</trkseg></trk>
<trk>
<name>hmlma10</name>
<cmt>v</cmt>
<desc>Mont-Sainte-Aldegonde Chemin n°10 </desc>
<link href="https://chemins.be/montsaintealdegonde/chemin/10"/><trkseg>
<trkpt lat="50.421943" lon="4.235510"><time>2026-05-02T18:55:16Z</time></trkpt>
<trkpt lat="50.422021" lon="4.241181"><time>2026-05-02T19:05:16Z</time></trkpt>
<trkpt lat="50.422733" lon="4.242797"><time>2026-05-02T19:15:16Z</time></trkpt>
</trkseg>
</trk>
<trk>
<name>hmlma13</name>
<cmt>v</cmt>
<desc>Mont-Sainte-Aldegonde Chemin n°13 Rue du Bois des Faulx</desc>
<link href="https://chemins.be/montsaintealdegonde/chemin/13"/><trkseg>
<trkpt lat="50.439396" lon="4.238206"><time>2026-05-02T18:45:16Z</time></trkpt>
<trkpt lat="50.442599" lon="4.239732"><time>2026-05-02T18:55:16Z</time></trkpt>
</trkseg>
</trk>
<trk>
<name>hmlma17</name>
<cmt>q</cmt>
<desc>Mont-Sainte-Aldegonde Sentier n°17 </desc>
<link href="https://chemins.be/montsaintealdegonde/sentier/17"/><trkseg>
<trkpt lat="50.430494" lon="4.225498"><time>2026-05-02T18:45:16Z</time></trkpt>
<trkpt lat="50.430695" lon="4.226700"><time>2026-05-02T18:55:16Z</time></trkpt>
<trkpt lat="50.431397" lon="4.226929"><time>2026-05-02T19:05:16Z</time></trkpt>
</trkseg>
</trk>
<trk>
<name>hmlma18</name>
<cmt>q</cmt>
<desc>Mont-Sainte-Aldegonde Sentier n°18 </desc>
<link href="https://chemins.be/montsaintealdegonde/sentier/18"/><trkseg>
<trkpt lat="50.429683" lon="4.227072"><time>2026-05-02T18:45:16Z</time></trkpt>
<trkpt lat="50.429028" lon="4.228552"><time>2026-05-02T18:55:16Z</time></trkpt>
<trkpt lat="50.428401" lon="4.230496"><time>2026-05-02T19:05:16Z</time></trkpt>
</trkseg>
</trk>
<trk>
<name>hmlma19</name>
<cmt>v</cmt>
<desc>Mont-Sainte-Aldegonde Sentier n°19 Place Max Buset / Rue des Ormes / Rue Verte</desc>
<link href="https://chemins.be/montsaintealdegonde/sentier/19"/><trkseg>
<trkpt lat="50.429915" lon="4.233447"><time>2026-05-02T18:45:16Z</time></trkpt>
<trkpt lat="50.429951" lon="4.233757"><time>2026-05-02T18:55:16Z</time></trkpt>
<trkpt lat="50.430320" lon="4.233953"><time>2026-05-02T19:05:16Z</time></trkpt>
<trkpt lat="50.430887" lon="4.234035"><time>2026-05-02T19:15:16Z</time></trkpt>
<trkpt lat="50.431004" lon="4.234303"><time>2026-05-02T19:25:16Z</time></trkpt>
<trkpt lat="50.431265" lon="4.234217"><time>2026-05-02T19:35:16Z</time></trkpt>
<trkpt lat="50.431966" lon="4.234384"><time>2026-05-02T19:45:16Z</time></trkpt>
<trkpt lat="50.432523" lon="4.234143"><time>2026-05-02T19:55:16Z</time></trkpt>
<trkpt lat="50.433000" lon="4.234198"><time>2026-05-02T20:05:16Z</time></trkpt>
</trkseg></trk>
<trk>
<name>hmlma19</name>
<cmt>r</cmt>
<desc>Mont-Sainte-Aldegonde Sentier n°19 Place Max Buset / Rue des Ormes / Rue Verte</desc>
<link href="https://chemins.be/montsaintealdegonde/sentier/19"/><trkseg>
<trkpt lat="50.433000" lon="4.234198"><time>2026-05-02T20:05:16Z</time></trkpt>
<trkpt lat="50.433915" lon="4.232957"><time>2026-05-02T20:15:16Z</time></trkpt>
<trkpt lat="50.436110" lon="4.233880"><time>2026-05-02T20:25:16Z</time></trkpt>
</trkseg></trk>
<trk>
<name>hmlma19</name>
<cmt>q</cmt>
<desc>Mont-Sainte-Aldegonde Sentier n°19 Place Max Buset / Rue des Ormes / Rue Verte</desc>
<link href="https://chemins.be/montsaintealdegonde/sentier/19"/><trkseg>
<trkpt lat="50.436110" lon="4.233880"><time>2026-05-02T20:25:16Z</time></trkpt>
<trkpt lat="50.438256" lon="4.231678"><time>2026-05-02T20:35:16Z</time></trkpt>
<trkpt lat="50.439119" lon="4.231450"><time>2026-05-02T20:45:16Z</time></trkpt>
</trkseg>
</trk>
<trk>
<name>hmlma20</name>
<cmt>q</cmt>
<desc>Mont-Sainte-Aldegonde Sentier n°20 </desc>
<link href="https://chemins.be/montsaintealdegonde/sentier/20"/><trkseg>
<trkpt lat="50.434107" lon="4.235645"><time>2026-05-02T18:45:16Z</time></trkpt>
<trkpt lat="50.434243" lon="4.236292"><time>2026-05-02T18:55:16Z</time></trkpt>
<trkpt lat="50.434298" lon="4.237137"><time>2026-05-02T19:05:16Z</time></trkpt>
</trkseg>
</trk>
<trk>
<name>hmlma21</name>
<cmt>v</cmt>
<desc>Mont-Sainte-Aldegonde Sentier n°21 </desc>
<link href="https://chemins.be/montsaintealdegonde/sentier/21"/><trkseg>
<trkpt lat="50.438596" lon="4.237941"><time>2026-05-02T18:45:16Z</time></trkpt>
<trkpt lat="50.438319" lon="4.239476"><time>2026-05-02T18:55:16Z</time></trkpt>
<trkpt lat="50.437286" lon="4.240408"><time>2026-05-02T19:05:16Z</time></trkpt>
</trkseg></trk>
<trk>
<name>hmlma21</name>
<cmt>q</cmt>
<desc>Mont-Sainte-Aldegonde Sentier n°21 </desc>
<link href="https://chemins.be/montsaintealdegonde/sentier/21"/><trkseg>
<trkpt lat="50.437286" lon="4.240408"><time>2026-05-02T19:05:16Z</time></trkpt>
<trkpt lat="50.436873" lon="4.241310"><time>2026-05-02T19:15:16Z</time></trkpt>
<trkpt lat="50.436442" lon="4.241466"><time>2026-05-02T19:25:16Z</time></trkpt>
</trkseg>
</trk>
<trk>
<name>hmlma21bis</name>
<cmt>r</cmt>
<desc>Mont-Sainte-Aldegonde Sentier n°21bis Rue de la Folie</desc>
<link href="https://chemins.be/montsaintealdegonde/sentier/21bis"/><trkseg>
<trkpt lat="50.434890" lon="4.236248"><time>2026-05-02T18:45:16Z</time></trkpt>
<trkpt lat="50.434765" lon="4.237220"><time>2026-05-02T18:55:16Z</time></trkpt>
<trkpt lat="50.435279" lon="4.238668"><time>2026-05-02T19:05:16Z</time></trkpt>
<trkpt lat="50.436243" lon="4.239890"><time>2026-05-02T19:15:16Z</time></trkpt>
</trkseg></trk>
<trk>
<name>hmlma21bis</name>
<cmt>v</cmt>
<desc>Mont-Sainte-Aldegonde Sentier n°21bis Rue de la Folie</desc>
<link href="https://chemins.be/montsaintealdegonde/sentier/21bis"/><trkseg>
<trkpt lat="50.436243" lon="4.239890"><time>2026-05-02T19:15:16Z</time></trkpt>
<trkpt lat="50.437331" lon="4.240338"><time>2026-05-02T19:25:16Z</time></trkpt>
</trkseg>
</trk>
<trk>
<name>hmlma23</name>
<cmt>v</cmt>
<desc>Mont-Sainte-Aldegonde Sentier n°23 </desc>
<link href="https://chemins.be/montsaintealdegonde/sentier/23"/><trkseg>
<trkpt lat="50.430688" lon="4.233023"><time>2026-05-02T18:45:16Z</time></trkpt>
<trkpt lat="50.431389" lon="4.232683"><time>2026-05-02T18:55:16Z</time></trkpt>
<trkpt lat="50.432404" lon="4.232004"><time>2026-05-02T19:05:16Z</time></trkpt>
<trkpt lat="50.432387" lon="4.233130"><time>2026-05-02T19:15:16Z</time></trkpt>
<trkpt lat="50.432496" lon="4.234101"><time>2026-05-02T19:25:16Z</time></trkpt>
<trkpt lat="50.432623" lon="4.234762"><time>2026-05-02T19:35:16Z</time></trkpt>
</trkseg>
</trk>
<trk>
<name>hmlma24</name>
<cmt>q</cmt>
<desc>Mont-Sainte-Aldegonde Sentier n°24 </desc>
<link href="https://chemins.be/montsaintealdegonde/sentier/24"/><trkseg>
<trkpt lat="50.428996" lon="4.232042"><time>2026-05-02T18:45:16Z</time></trkpt>
<trkpt lat="50.428762" lon="4.231508"><time>2026-05-02T18:55:16Z</time></trkpt>
</trkseg></trk>
<trk>
<name>hmlma24</name>
<cmt>v</cmt>
<desc>Mont-Sainte-Aldegonde Sentier n°24 </desc>
<link href="https://chemins.be/montsaintealdegonde/sentier/24"/><trkseg>
<trkpt lat="50.428762" lon="4.231508"><time>2026-05-02T18:55:16Z</time></trkpt>
<trkpt lat="50.428401" lon="4.230482"><time>2026-05-02T19:05:16Z</time></trkpt>
<trkpt lat="50.427158" lon="4.228107"><time>2026-05-02T19:15:16Z</time></trkpt>
</trkseg>
</trk>
<trk>
<name>hmlma25</name>
<cmt>q</cmt>
<desc>Mont-Sainte-Aldegonde Sentier n°25 </desc>
<link href="https://chemins.be/montsaintealdegonde/sentier/25"/><trkseg>
<trkpt lat="50.424705" lon="4.233576"><time>2026-05-02T18:45:16Z</time></trkpt>
<trkpt lat="50.424926" lon="4.231863"><time>2026-05-02T18:55:16Z</time></trkpt>
<trkpt lat="50.425557" lon="4.230014"><time>2026-05-02T19:05:16Z</time></trkpt>
<trkpt lat="50.426484" lon="4.230025"><time>2026-05-02T19:15:16Z</time></trkpt>
<trkpt lat="50.426943" lon="4.229233"><time>2026-05-02T19:25:16Z</time></trkpt>
<trkpt lat="50.427114" lon="4.229486"><time>2026-05-02T19:35:16Z</time></trkpt>
<trkpt lat="50.427879" lon="4.229470"><time>2026-05-02T19:45:16Z</time></trkpt>
<trkpt lat="50.428956" lon="4.228665"><time>2026-05-02T19:55:16Z</time></trkpt>
</trkseg>
</trk>
<trk>
<name>hmlma26</name>
<cmt>q</cmt>
<desc>Mont-Sainte-Aldegonde Sentier n°26 </desc>
<link href="https://chemins.be/montsaintealdegonde/sentier/26"/><trkseg>
<trkpt lat="50.427191" lon="4.233230"><time>2026-05-02T18:45:16Z</time></trkpt>
<trkpt lat="50.427008" lon="4.230345"><time>2026-05-02T18:55:16Z</time></trkpt>
<trkpt lat="50.426836" lon="4.229346"><time>2026-05-02T19:05:16Z</time></trkpt>
<trkpt lat="50.426610" lon="4.228925"><time>2026-05-02T19:15:16Z</time></trkpt>
</trkseg>
</trk>
<trk>
<name>hmlma27</name>
<cmt>v</cmt>
<desc>Mont-Sainte-Aldegonde Sentier n°27 </desc>
<link href="https://chemins.be/montsaintealdegonde/sentier/27"/><trkseg>
<trkpt lat="50.430302" lon="4.233981"><time>2026-05-02T18:45:16Z</time></trkpt>
<trkpt lat="50.429602" lon="4.235052"><time>2026-05-02T18:55:16Z</time></trkpt>
<trkpt lat="50.427724" lon="4.235860"><time>2026-05-02T19:05:16Z</time></trkpt>
</trkseg></trk>
<trk>
<name>hmlma27</name>
<cmt>q</cmt>
<desc>Mont-Sainte-Aldegonde Sentier n°27 </desc>
<link href="https://chemins.be/montsaintealdegonde/sentier/27"/><trkseg>
<trkpt lat="50.427724" lon="4.235860"><time>2026-05-02T19:05:16Z</time></trkpt>
<trkpt lat="50.427527" lon="4.236466"><time>2026-05-02T19:15:16Z</time></trkpt>
<trkpt lat="50.425092" lon="4.237458"><time>2026-05-02T19:25:16Z</time></trkpt>
</trkseg>
</trk>
<trk>
<name>hmlma28</name>
<cmt>v</cmt>
<desc>Mont-Sainte-Aldegonde Sentier n°28 </desc>
<link href="https://chemins.be/montsaintealdegonde/sentier/28"/><trkseg>
<trkpt lat="50.426160" lon="4.235512"><time>2026-05-02T18:45:16Z</time></trkpt>
<trkpt lat="50.426879" lon="4.235567"><time>2026-05-02T18:55:16Z</time></trkpt>
<trkpt lat="50.427769" lon="4.235944"><time>2026-05-02T19:05:16Z</time></trkpt>
<trkpt lat="50.428399" lon="4.236238"><time>2026-05-02T19:15:16Z</time></trkpt>
<trkpt lat="50.429712" lon="4.236980"><time>2026-05-02T19:25:16Z</time></trkpt>
<trkpt lat="50.429892" lon="4.236966"><time>2026-05-02T19:35:16Z</time></trkpt>
<trkpt lat="50.430054" lon="4.236811"><time>2026-05-02T19:45:16Z</time></trkpt>
<trkpt lat="50.430306" lon="4.237331"><time>2026-05-02T19:55:16Z</time></trkpt>
</trkseg>
</trk>
<trk>
<name>hmlma29</name>
<cmt>v</cmt>
<desc>Mont-Sainte-Aldegonde Sentier n°29 </desc>
<link href="https://chemins.be/montsaintealdegonde/sentier/29"/><trkseg>
<trkpt lat="50.429189" lon="4.235265"><time>2026-05-02T18:45:16Z</time></trkpt>
<trkpt lat="50.429694" lon="4.236924"><time>2026-05-02T18:55:16Z</time></trkpt>
</trkseg></trk>
<trk>
<name>hmlma29</name>
<cmt>s</cmt>
<desc>Mont-Sainte-Aldegonde Sentier n°29 </desc>
<link href="https://chemins.be/montsaintealdegonde/sentier/29"/><trkseg>
<trkpt lat="50.429694" lon="4.236924"><time>2026-05-02T18:55:16Z</time></trkpt>
<trkpt lat="50.429399" lon="4.238487"><time>2026-05-02T19:05:16Z</time></trkpt>
</trkseg>
</trk>
<trk>
<name>hmlma29bis</name>
<cmt>v</cmt>
<desc>Mont-Sainte-Aldegonde Sentier n°29bis </desc>
<link href="https://chemins.be/montsaintealdegonde/sentier/29bis"/><trkseg>
<trkpt lat="50.428729" lon="4.233676"><time>2026-05-02T18:45:16Z</time></trkpt>
<trkpt lat="50.428830" lon="4.235406"><time>2026-05-02T18:55:16Z</time></trkpt>
</trkseg></trk>
<trk>
<name>hmlma29bis</name>
<cmt>q</cmt>
<desc>Mont-Sainte-Aldegonde Sentier n°29bis </desc>
<link href="https://chemins.be/montsaintealdegonde/sentier/29bis"/><trkseg>
<trkpt lat="50.428830" lon="4.235406"><time>2026-05-02T18:55:16Z</time></trkpt>
<trkpt lat="50.429324" lon="4.235729"><time>2026-05-02T19:05:16Z</time></trkpt>
</trkseg>
</trk>
<trk>
<name>hmlma30</name>
<cmt>v</cmt>
<desc>Mont-Sainte-Aldegonde Sentier n°30 </desc>
<link href="https://chemins.be/montsaintealdegonde/sentier/30"/><trkseg>
<trkpt lat="50.430011" lon="4.231195"><time>2026-05-02T18:45:16Z</time></trkpt>
<trkpt lat="50.430578" lon="4.231137"><time>2026-05-02T18:55:16Z</time></trkpt>
</trkseg>
</trk>
<trk>
<name>hmlma31</name>
<cmt>q</cmt>
<desc>Mont-Sainte-Aldegonde Sentier n°31 </desc>
<link href="https://chemins.be/montsaintealdegonde/sentier/31"/><trkseg>
<trkpt lat="50.428045" lon="4.251314"><time>2026-05-02T18:45:16Z</time></trkpt>
<trkpt lat="50.426960" lon="4.251178"><time>2026-05-02T18:55:16Z</time></trkpt>
<trkpt lat="50.424290" lon="4.252229"><time>2026-05-02T19:05:16Z</time></trkpt>
<trkpt lat="50.423944" lon="4.252370"><time>2026-05-02T19:15:16Z</time></trkpt>
<trkpt lat="50.423546" lon="4.252184"><time>2026-05-02T19:25:16Z</time></trkpt>
</trkseg>
</trk>
<trk>
<name>hmlma32</name>
<cmt>q</cmt>
<desc>Mont-Sainte-Aldegonde Sentier n°32 </desc>
<link href="https://chemins.be/montsaintealdegonde/sentier/32"/><trkseg>
<trkpt lat="50.430659" lon="4.231404"><time>2026-05-02T18:45:16Z</time></trkpt>
<trkpt lat="50.431353" lon="4.232655"><time>2026-05-02T18:55:16Z</time></trkpt>
</trkseg>
</trk>
<trk>
<name>hmlma9</name>
<cmt>v</cmt>
<desc>Mont-Sainte-Aldegonde Chemin n°9 Chemin de Warimez</desc>
<link href="https://chemins.be/montsaintealdegonde/chemin/9"/><trkseg>
<trkpt lat="50.425738" lon="4.236161"><time>2026-05-02T18:45:16Z</time></trkpt>
<trkpt lat="50.425047" lon="4.237584"><time>2026-05-02T18:55:16Z</time></trkpt>
<trkpt lat="50.424675" lon="4.238139"><time>2026-05-02T19:05:16Z</time></trkpt>
<trkpt lat="50.424115" lon="4.239489"><time>2026-05-02T19:15:16Z</time></trkpt>
<trkpt lat="50.423012" lon="4.242643"><time>2026-05-02T19:25:16Z</time></trkpt>
<trkpt lat="50.422793" lon="4.242895"><time>2026-05-02T19:35:16Z</time></trkpt>
</trkseg>
</trk>
<trk>
<name>hmlmai1</name>
<cmt>v</cmt>
<desc>Mont-Sainte-Aldegonde Sentier n°i1 </desc>
<link href="https://chemins.be/montsaintealdegonde/sentier/i1"/><trkseg>
<trkpt lat="50.432920" lon="4.227907"><time>2026-05-02T18:45:16Z</time></trkpt>
<trkpt lat="50.432421" lon="4.231160"><time>2026-05-02T18:55:16Z</time></trkpt>
<trkpt lat="50.432404" lon="4.232032"><time>2026-05-02T19:05:16Z</time></trkpt>
</trkseg>
</trk>
<trk>
<name>hmlmai2</name>
<cmt>v</cmt>
<desc>Mont-Sainte-Aldegonde Sentier n°i2 </desc>
<link href="https://chemins.be/montsaintealdegonde/sentier/i2"/><trkseg>
<trkpt lat="50.434800" lon="4.235981"><time>2026-05-02T18:45:16Z</time></trkpt>
<trkpt lat="50.435444" lon="4.233671"><time>2026-05-02T18:55:16Z</time></trkpt>
</trkseg>
</trk>
<trk>
<name>hmlmai3</name>
<cmt>v</cmt>
<desc>Mont-Sainte-Aldegonde Sentier n°i3 </desc>
<link href="https://chemins.be/montsaintealdegonde/sentier/i3"/><trkseg>
<trkpt lat="50.434783" lon="4.237192"><time>2026-05-02T18:45:16Z</time></trkpt>
<trkpt lat="50.434262" lon="4.237292"><time>2026-05-02T18:55:16Z</time></trkpt>
</trkseg>
</trk>
<trk>
<name>hmlmai4</name>
<cmt>v</cmt>
<desc>Mont-Sainte-Aldegonde Chemin n°i4 </desc>
<link href="https://chemins.be/montsaintealdegonde/chemin/i4"/><trkseg>
<trkpt lat="50.431994" lon="4.235412"><time>2026-05-02T18:45:16Z</time></trkpt>
<trkpt lat="50.431660" lon="4.234343"><time>2026-05-02T18:55:16Z</time></trkpt>
</trkseg>
</trk>
<trk>
<name>hmlmai5</name>
<cmt>v</cmt>
<desc>Mont-Sainte-Aldegonde Chemin n°i5 </desc>
<link href="https://chemins.be/montsaintealdegonde/chemin/i5"/><trkseg>
<trkpt lat="50.438758" lon="4.237842"><time>2026-05-02T18:45:16Z</time></trkpt>
<trkpt lat="50.438963" lon="4.236772"><time>2026-05-02T18:55:16Z</time></trkpt>
<trkpt lat="50.439321" lon="4.235039"><time>2026-05-02T19:05:16Z</time></trkpt>
</trkseg>
</trk>
<trk>
<name>hmlmaL251</name>
<cmt>r</cmt>
<desc>Mont-Sainte-Aldegonde Chemin n°L251 </desc>
<link href="https://chemins.be/montsaintealdegonde/chemin/L251"/><trkseg>
<trkpt lat="50.442735" lon="4.234767"><time>2026-05-02T18:45:16Z</time></trkpt>
<trkpt lat="50.441503" lon="4.232584"><time>2026-05-02T18:55:16Z</time></trkpt>
</trkseg></trk>
<trk>
<name>hmlmaL251</name>
<cmt>q</cmt>
<desc>Mont-Sainte-Aldegonde Chemin n°L251 </desc>
<link href="https://chemins.be/montsaintealdegonde/chemin/L251"/><trkseg>
<trkpt lat="50.441503" lon="4.232584"><time>2026-05-02T18:55:16Z</time></trkpt>
<trkpt lat="50.438627" lon="4.226496"><time>2026-05-02T19:05:16Z</time></trkpt>
</trkseg></trk>
<trk>
<name>hmlmaL251</name>
<cmt>v</cmt>
<desc>Mont-Sainte-Aldegonde Chemin n°L251 </desc>
<link href="https://chemins.be/montsaintealdegonde/chemin/L251"/><trkseg>
<trkpt lat="50.438627" lon="4.226496"><time>2026-05-02T19:05:16Z</time></trkpt>
<trkpt lat="50.436564" lon="4.222519"><time>2026-05-02T19:15:16Z</time></trkpt>
</trkseg></trk>
<trk>
<name>hmlmaL251</name>
<cmt>d</cmt>
<desc>Mont-Sainte-Aldegonde Chemin n°L251 </desc>
<link href="https://chemins.be/montsaintealdegonde/chemin/L251"/><trkseg>
<trkpt lat="50.436564" lon="4.222519"><time>2026-05-02T19:15:16Z</time></trkpt>
<trkpt lat="50.434423" lon="4.218420"><time>2026-05-02T19:25:16Z</time></trkpt>
</trkseg>
</trk>
</gpx>